Location: Góry Miechowskie
(50.3599°N, 20.1803°E)
Time: 19:01:44
(UTC+00:00)

Cosmos 1937 Rocket - Pass Details

Date: 27 September 2024
Orbit: 743 x 778 km, 74.0° (Epoch: 13 October)

Event Time Altitude Azimuth Distance (km) Brightness Sun altitude
Rises 03:48:51 0° 171° (S) 3,195 6.7 -8.0°
Reaches altitude 10° 03:51:25 10° 161° (SSE) 2,281 6.1 -7.6°
Maximum altitude 03:55:53 30° 101° (E) 1,339 5.7 -6.9°
Drops below altitude 10° 04:00:25 10° 41° (NE) 2,317 6.7 -6.1°
Sets 04:03:03 0° 31° (NNE) 3,254 7.3 -5.7°
